Time,TemperatureF,DewpointF,PressureIn,WindDirection,WindDirectionDegrees,WindSpeedMPH,WindSpeedGustMPH,Humidity,HourlyPrecipIn,Conditions,Clouds,dailyrainin,SoftwareType,DateUTC
2013-09-01 00:05:00,66.4,46.1,29.70,WNW,292,0.0,0.0,48,0.00,RA,,0.00,WeatherDisplay:10.37,2013-09-01 07:05:00,
2013-09-01 00:10:00,66.3,46.0,29.70,WNW,292,0.0,0.0,48,0.00,RA,,0.00,WeatherDisplay:10.37,2013-09-01 07:10:00,
2013-09-01 00:15:00,66.1,45.8,29.70,WNW,292,0.0,0.0,48,0.00,CLR,,0.00,WeatherDisplay:10.37,2013-09-01 07:15:00,
2013-09-01 00:20:00,66.0,46.3,29.70,WNW,292,0.0,0.0,49,0.00,CLR,,0.00,WeatherDisplay:10.37,2013-09-01 07:20:00,
2013-09-01 00:25:00,65.6,45.9,29.70,WNW,292,0.0,0.0,49,0.00,CLR,,0.00,WeatherDisplay:10.37,2013-09-01 07:25:00,
2013-09-01 00:30:00,65.3,45.6,29.70,WNW,292,0.0,0.0,49,0.00,CLR,,0.00,WeatherDisplay:10.37,2013-09-01 07:30:00,
2013-09-01 00:35:00,65.2,45.5,29.70,WNW,292,0.0,0.0,49,0.00,CLR,,0.00,WeatherDisplay:10.37,2013-09-01 07:35:00,
2013-09-01 00:40:00,65.3,45.6,29.70,WNW,292,0.0,0.0,49,0.00,CLR,,0.00,WeatherDisplay:10.37,2013-09-01 07:40:00,
2013-09-01 00:45:00,65.0,45.9,29.70,WNW,292,0.0,0.0,50,0.00,CLR,,0.00,WeatherDisplay:10.37,2013-09-01 07:45:00,
2013-09-01 00:50:00,64.5,46.0,29.70,WNW,292,0.0,0.0,51,0.00,CLR,,0.00,WeatherDisplay:10.37,2013-09-01 07:50:00,
2013-09-01 00:55:00,64.2,45.7,29.70,WNW,292,0.0,0.0,51,0.00,CLR,,0.00,WeatherDisplay:10.37,2013-09-01 07:55:00,
2013-09-01 01:00:00,64.0,46.0,29.70,WNW,292,0.0,0.0,52,0.00,CLR,,0.00,WeatherDisplay:10.37,2013-09-01 08:00:00,
2013-09-01 01:05:00,63.9,45.9,29.70,WNW,292,0.0,0.0,52,0.00,CLR,,0.00,WeatherDisplay:10.37,2013-09-01 08:05:00,
2013-09-01 01:10:00,63.5,46.1,29.70,WNW,292,0.0,0.0,53,0.00,CLR,,0.00,WeatherDisplay:10.37,2013-09-01 08:10:00,
2013-09-01 01:15:00,63.2,45.8,29.70,WNW,292,0.0,0.0,53,0.00,CLR,,0.00,WeatherDisplay:10.37,2013-09-01 08:15:00,
2013-09-01 01:20:00,63.1,45.7,29.70,WNW,292,0.0,0.0,53,0.00,CLR,,0.00,WeatherDisplay:10.37,2013-09-01 08:20:00,
2013-09-01 01:25:00,63.1,45.7,29.70,WNW,292,0.0,0.0,53,0.00,CLR,,0.00,WeatherDisplay:10.37,2013-09-01 08:25:00,
2013-09-01 01:30:00,62.9,45.5,29.70,WNW,292,0.0,0.0,53,0.00,CLR,,0.00,WeatherDisplay:10.37,2013-09-01 08:30:00,
2013-09-01 01:35:00,62.7,45.8,29.70,WNW,292,0.0,0.0,54,0.00,CLR,,0.00,WeatherDisplay:10.37,2013-09-01 08:35:00,
2013-09-01 01:40:00,62.4,45.5,29.70,WNW,292,0.0,0.0,54,0.00,CLR,,0.00,WeatherDisplay:10.37,2013-09-01 08:40:00,
2013-09-01 01:45:00,62.1,45.7,29.69,WNW,292,0.0,0.0,55,0.00,CLR,,0.00,WeatherDisplay:10.37,2013-09-01 08:45:00,
2013-09-01 01:50:00,62.0,45.6,29.69,WNW,292,0.0,0.0,55,0.00,CLR,,0.00,WeatherDisplay:10.37,2013-09-01 08:50:00,
2013-09-01 01:55:00,61.8,45.5,29.69,WNW,292,0.0,0.0,55,0.00,CLR,,0.00,WeatherDisplay:10.37,2013-09-01 08:55:00,
2013-09-01 02:00:00,61.6,45.7,29.69,WNW,292,0.0,0.0,56,0.00,CLR,,0.00,WeatherDisplay:10.37,2013-09-01 09:00:00,
2013-09-01 02:05:00,61.6,45.7,29.69,WNW,292,0.0,0.0,56,0.00,CLR,,0.00,WeatherDisplay:10.37,2013-09-01 09:05:00,
2013-09-01 02:10:00,61.5,45.7,29.69,WNW,292,0.0,0.0,56,0.00,CLR,,0.00,WeatherDisplay:10.37,2013-09-01 09:10:00,
2013-09-01 02:15:00,61.3,45.5,29.68,WNW,292,0.0,0.0,56,0.00,CLR,,0.00,WeatherDisplay:10.37,2013-09-01 09:15:00,
2013-09-01 02:20:00,61.2,45.4,29.68,WNW,292,0.0,0.0,56,0.00,CLR,,0.00,WeatherDisplay:10.37,2013-09-01 09:20:00,
2013-09-01 02:25:00,60.9,45.6,29.68,WNW,292,0.0,0.0,57,0.00,CLR,,0.00,WeatherDisplay:10.37,2013-09-01 09:25:00,
2013-09-01 02:30:00,60.5,45.6,29.68,WNW,292,0.0,0.0,58,0.00,CLR,,0.00,WeatherDisplay:10.37,2013-09-01 09:30:00,
2013-09-01 02:35:00,60.2,45.4,29.68,WNW,292,0.0,0.0,58,0.00,CLR,,0.00,WeatherDisplay:10.37,2013-09-01 09:35:00,
2013-09-01 02:40:00,59.9,45.1,29.68,WNW,292,0.0,0.0,58,0.00,CLR,,0.00,WeatherDisplay:10.37,2013-09-01 09:40:00,
2013-09-01 02:45:00,59.6,45.2,29.69,WNW,292,0.0,0.0,59,0.00,CLR,,0.00,WeatherDisplay:10.37,2013-09-01 09:45:00,
2013-09-01 02:50:00,59.3,45.0,29.69,WNW,292,0.0,0.0,59,0.00,CLR,,0.00,WeatherDisplay:10.37,2013-09-01 09:50:00,
2013-09-01 02:55:00,59.0,45.1,29.69,WNW,292,0.0,0.0,60,0.00,CLR,,0.00,WeatherDisplay:10.37,2013-09-01 09:55:00,
2013-09-01 03:00:00,58.9,45.0,29.70,WNW,292,0.0,0.0,60,0.00,CLR,,0.00,WeatherDisplay:10.37,2013-09-01 10:00:00,
2013-09-01 03:05:00,58.9,45.0,29.70,WNW,292,0.0,0.0,60,0.00,CLR,,0.00,WeatherDisplay:10.37,2013-09-01 10:05:00,
2013-09-01 03:10:00,58.7,45.3,29.70,WNW,292,0.0,0.0,61,0.00,CLR,,0.00,WeatherDisplay:10.37,2013-09-01 10:10:00,
2013-09-01 03:15:00,58.3,45.3,29.69,WNW,292,0.0,0.0,62,0.00,CLR,,0.00,WeatherDisplay:10.37,2013-09-01 10:15:00,
2013-09-01 03:20:00,58.1,45.1,29.69,WNW,292,0.0,0.0,62,0.00,CLR,,0.00,WeatherDisplay:10.37,2013-09-01 10:20:00,
2013-09-01 03:25:00,57.8,44.9,29.69,WNW,292,0.0,0.0,62,0.00,CLR,,0.00,WeatherDisplay:10.37,2013-09-01 10:25:00,
2013-09-01 03:30:00,57.6,44.7,29.70,WNW,292,0.0,0.0,62,0.00,CLR,,0.00,WeatherDisplay:10.37,2013-09-01 10:30:00,
2013-09-01 03:35:00,57.5,44.6,29.70,WNW,292,0.0,0.0,62,0.00,CLR,,0.00,WeatherDisplay:10.37,2013-09-01 10:35:00,
2013-09-01 03:40:00,57.5,44.6,29.70,WNW,292,0.0,0.0,62,0.00,CLR,,0.00,WeatherDisplay:10.37,2013-09-01 10:40:00,
2013-09-01 03:45:00,57.5,44.6,29.69,WNW,292,0.0,0.0,62,0.00,CLR,,0.00,WeatherDisplay:10.37,2013-09-01 10:45:00,
2013-09-01 03:50:00,57.3,44.4,29.69,WNW,292,0.0,0.0,62,0.00,CLR,,0.00,WeatherDisplay:10.37,2013-09-01 10:50:00,
2013-09-01 03:55:00,57.2,44.3,29.69,WNW,292,0.0,0.0,62,0.00,CLR,,0.00,WeatherDisplay:10.37,2013-09-01 10:55:00,
2013-09-01 04:00:00,57.2,44.3,29.69,WNW,292,0.0,0.0,62,0.00,CLR,,0.00,WeatherDisplay:10.37,2013-09-01 11:00:00,
2013-09-01 04:05:00,57.0,44.1,29.69,WNW,292,0.0,0.0,62,0.00,CLR,,0.00,WeatherDisplay:10.37,2013-09-01 11:05:00,
2013-09-01 04:10:00,56.9,44.4,29.69,WNW,292,0.0,0.0,63,0.00,CLR,,0.00,WeatherDisplay:10.37,2013-09-01 11:10:00,
2013-09-01 04:15:00,56.7,44.2,29.70,WNW,292,0.0,0.0,63,0.00,CLR,,0.00,WeatherDisplay:10.37,2013-09-01 11:15:00,
2013-09-01 04:20:00,56.6,44.1,29.70,WNW,292,0.0,0.0,63,0.00,CLR,,0.00,WeatherDisplay:10.37,2013-09-01 11:20:00,
2013-09-01 04:25:00,56.5,44.5,29.70,WNW,292,0.0,0.0,64,0.00,CLR,,0.00,WeatherDisplay:10.37,2013-09-01 11:25:00,
2013-09-01 04:30:00,56.3,44.3,29.70,WNW,292,0.0,0.0,64,0.00,CLR,,0.00,WeatherDisplay:10.37,2013-09-01 11:30:00,
2013-09-01 04:35:00,56.3,44.3,29.70,WNW,292,0.0,0.0,64,0.00,CLR,,0.00,WeatherDisplay:10.37,2013-09-01 11:35:00,
2013-09-01 04:40:00,56.3,44.3,29.70,WNW,292,0.0,0.0,64,0.00,CLR,,0.00,WeatherDisplay:10.37,2013-09-01 11:40:00,
2013-09-01 04:45:00,56.0,44.4,29.70,WNW,292,0.0,0.0,65,0.00,CLR,,0.00,WeatherDisplay:10.37,2013-09-01 11:45:00,
2013-09-01 04:50:00,55.6,44.0,29.70,WNW,292,0.0,0.0,65,0.00,CLR,,0.00,WeatherDisplay:10.37,2013-09-01 11:50:00,
2013-09-01 04:55:00,55.6,44.0,29.70,WNW,292,0.0,0.0,65,0.00,CLR,,0.00,WeatherDisplay:10.37,2013-09-01 11:55:00,
2013-09-01 05:00:00,55.6,44.0,29.70,WNW,292,0.0,0.0,65,0.00,CLR,,0.00,WeatherDisplay:10.37,2013-09-01 12:00:00,
2013-09-01 05:05:00,55.6,44.0,29.70,WNW,292,0.0,0.0,65,0.00,CLR,,0.00,WeatherDisplay:10.37,2013-09-01 12:05:00,
2013-09-01 05:10:00,55.6,44.0,29.70,WNW,292,0.0,0.0,65,0.00,CLR,,0.00,WeatherDisplay:10.37,2013-09-01 12:10:00,
2013-09-01 05:15:00,55.6,44.0,29.70,WNW,292,0.0,0.0,65,0.00,CLR,,0.00,WeatherDisplay:10.37,2013-09-01 12:15:00,
2013-09-01 05:20:00,55.4,43.8,29.70,WNW,292,0.0,0.0,65,0.00,CLR,,0.00,WeatherDisplay:10.37,2013-09-01 12:20:00,
2013-09-01 05:25:00,55.1,43.5,29.70,WNW,292,0.0,0.0,65,0.00,CLR,,0.00,WeatherDisplay:10.37,2013-09-01 12:25:00,
2013-09-01 05:30:00,55.0,43.8,29.71,WNW,292,0.0,0.0,66,0.00,CLR,,0.00,WeatherDisplay:10.37,2013-09-01 12:30:00,
2013-09-01 05:35:00,54.8,43.7,29.71,WNW,292,0.0,0.0,66,0.00,CLR,,0.00,WeatherDisplay:10.37,2013-09-01 12:35:00,
2013-09-01 05:40:00,54.8,43.7,29.71,WNW,292,0.0,0.0,66,0.00,CLR,,0.00,WeatherDisplay:10.37,2013-09-01 12:40:00,
2013-09-01 05:45:00,54.8,43.7,29.72,WNW,292,0.0,0.0,66,0.00,CLR,,0.00,WeatherDisplay:10.37,2013-09-01 12:45:00,
2013-09-01 05:50:00,54.8,43.7,29.72,WNW,292,0.0,0.0,66,0.00,CLR,,0.00,WeatherDisplay:10.37,2013-09-01 12:50:00,
2013-09-01 05:55:00,54.7,43.6,29.72,WNW,292,0.0,0.0,66,0.00,CLR,,0.00,WeatherDisplay:10.37,2013-09-01 12:55:00,
2013-09-01 06:00:00,54.5,43.4,29.72,WNW,292,0.0,0.0,66,0.00,CLR,,0.00,WeatherDisplay:10.37,2013-09-01 13:00:00,
2013-09-01 06:05:00,54.5,43.4,29.72,WNW,292,0.0,0.0,66,0.00,CLR,,0.00,WeatherDisplay:10.37,2013-09-01 13:05:00,
2013-09-01 06:10:00,54.5,43.4,29.72,WNW,292,0.0,0.0,66,0.00,CLR,,0.00,WeatherDisplay:10.37,2013-09-01 13:10:00,
2013-09-01 06:15:00,54.8,43.7,29.73,WNW,292,0.0,0.0,66,0.00,CLR,,0.00,WeatherDisplay:10.37,2013-09-01 13:15:00,
2013-09-01 06:20:00,55.3,43.7,29.73,WNW,292,0.0,0.0,65,0.00,CLR,,0.00,WeatherDisplay:10.37,2013-09-01 13:20:00,
2013-09-01 06:25:00,55.6,44.0,29.73,WNW,292,0.0,0.0,65,0.00,CLR,,0.00,WeatherDisplay:10.37,2013-09-01 13:25:00,
2013-09-01 06:30:00,55.9,44.3,29.73,WNW,292,0.0,0.0,65,0.00,CLR,,0.00,WeatherDisplay:10.37,2013-09-01 13:30:00,
2013-09-01 06:35:00,56.0,44.4,29.73,WNW,292,0.0,0.0,65,0.00,CLR,,0.00,WeatherDisplay:10.37,2013-09-01 13:35:00,
2013-09-01 06:40:00,56.5,44.9,29.73,WNW,292,0.0,0.0,65,0.00,CLR,,0.00,WeatherDisplay:10.37,2013-09-01 13:40:00,
2013-09-01 06:45:00,56.6,45.0,29.73,WNW,292,0.0,0.0,65,0.00,CLR,,0.00,WeatherDisplay:10.37,2013-09-01 13:45:00,
2013-09-01 06:50:00,56.7,45.1,29.73,WNW,292,0.0,0.0,65,0.00,CLR,,0.00,WeatherDisplay:10.37,2013-09-01 13:50:00,
2013-09-01 06:55:00,56.7,45.1,29.73,WNW,292,0.0,0.0,65,0.00,CLR,,0.00,WeatherDisplay:10.37,2013-09-01 13:55:00,
2013-09-01 07:00:00,56.9,45.7,29.73,WNW,292,0.0,0.0,66,0.00,CLR,,0.00,WeatherDisplay:10.37,2013-09-01 14:00:00,
2013-09-01 07:05:00,57.0,45.3,29.73,WNW,292,0.0,0.0,65,0.00,CLR,,0.00,WeatherDisplay:10.37,2013-09-01 14:05:00,
2013-09-01 07:10:00,57.3,45.6,29.73,WNW,292,0.0,0.0,65,0.00,CLR,,0.00,WeatherDisplay:10.37,2013-09-01 14:10:00,
2013-09-01 07:15:00,57.6,46.3,29.75,WNW,292,0.0,0.0,66,0.00,CLR,,0.00,WeatherDisplay:10.37,2013-09-01 14:15:00,
2013-09-01 07:20:00,58.1,46.4,29.75,WNW,292,0.0,0.0,65,0.00,CLR,,0.00,WeatherDisplay:10.37,2013-09-01 14:20:00,
2013-09-01 07:25:00,58.4,46.7,29.75,WNW,292,0.0,0.0,65,0.00,CLR,,0.00,WeatherDisplay:10.37,2013-09-01 14:25:00,
2013-09-01 07:30:00,58.7,47.0,29.75,WNW,292,0.0,0.0,65,0.00,CLR,,0.00,WeatherDisplay:10.37,2013-09-01 14:30:00,
2013-09-01 07:35:00,59.2,47.0,29.75,WNW,292,0.0,0.0,64,0.00,CLR,,0.00,WeatherDisplay:10.37,2013-09-01 14:35:00,
2013-09-01 07:40:00,59.8,47.6,29.75,WNW,292,0.0,0.0,64,0.00,CLR,,0.00,WeatherDisplay:10.37,2013-09-01 14:40:00,
2013-09-01 07:45:00,60.5,47.8,29.75,WNW,292,0.0,0.0,63,0.00,CLR,,0.00,WeatherDisplay:10.37,2013-09-01 14:45:00,
2013-09-01 07:50:00,61.2,48.1,29.75,WNW,292,0.0,0.0,62,0.00,CLR,,0.00,WeatherDisplay:10.37,2013-09-01 14:50:00,
2013-09-01 07:55:00,61.8,47.8,29.75,WNW,292,0.0,0.0,60,0.00,CLR,,0.00,WeatherDisplay:10.37,2013-09-01 14:55:00,
2013-09-01 08:00:00,62.4,47.9,29.74,WNW,292,0.0,0.0,59,0.00,CLR,,0.00,WeatherDisplay:10.37,2013-09-01 15:00:00,
2013-09-01 08:05:00,63.2,48.2,29.74,WNW,292,0.0,0.0,58,0.00,CLR,,0.00,WeatherDisplay:10.37,2013-09-01 15:05:00,
2013-09-01 08:10:00,64.0,47.5,29.74,WNW,292,0.0,0.0,55,0.00,CLR,,0.00,WeatherDisplay:10.37,2013-09-01 15:10:00,
2013-09-01 08:15:00,64.7,47.7,29.74,WNW,292,0.0,0.0,54,0.00,CLR,,0.00,WeatherDisplay:10.37,2013-09-01 15:15:00,
2013-09-01 08:20:00,65.5,47.4,29.74,WNW,292,0.0,0.0,52,0.00,CLR,,0.00,WeatherDisplay:10.37,2013-09-01 15:20:00,
2013-09-01 08:25:00,66.0,47.3,29.74,WNW,292,0.0,0.0,51,0.00,CLR,,0.00,WeatherDisplay:10.37,2013-09-01 15:25:00,
2013-09-01 08:30:00,66.3,47.1,29.74,WNW,292,0.0,0.0,50,0.00,CLR,,0.00,WeatherDisplay:10.37,2013-09-01 15:30:00,
2013-09-01 08:35:00,66.6,45.7,29.74,WNW,292,0.0,0.0,47,0.00,CLR,,0.00,WeatherDisplay:10.37,2013-09-01 15:35:00,
2013-09-01 08:40:00,67.1,44.4,29.74,WNW,292,0.0,0.0,44,0.00,CLR,,0.00,WeatherDisplay:10.37,2013-09-01 15:40:00,
2013-09-01 08:45:00,67.1,43.2,29.74,WNW,292,0.0,0.0,42,0.00,CLR,,0.00,WeatherDisplay:10.37,2013-09-01 15:45:00,
2013-09-01 08:50:00,67.6,43.7,29.74,WNW,292,0.0,0.0,42,0.00,CLR,,0.00,WeatherDisplay:10.37,2013-09-01 15:50:00,
2013-09-01 08:55:00,68.1,42.9,29.74,WNW,292,0.0,0.0,40,0.00,CLR,,0.00,WeatherDisplay:10.37,2013-09-01 15:55:00,
2013-09-01 09:00:00,68.6,43.3,29.74,WNW,292,0.0,0.0,40,0.00,CLR,,0.00,WeatherDisplay:10.37,2013-09-01 16:00:00,
2013-09-01 09:05:00,68.9,42.9,29.73,WNW,292,0.0,0.0,39,0.00,CLR,,0.00,WeatherDisplay:10.37,2013-09-01 16:05:00,
2013-09-01 09:10:00,69.6,42.2,29.73,WNW,292,0.0,0.0,37,0.00,CLR,,0.00,WeatherDisplay:10.37,2013-09-01 16:10:00,
2013-09-01 09:15:00,69.6,42.2,29.73,WNW,292,0.0,0.0,37,0.00,CLR,,0.00,WeatherDisplay:10.37,2013-09-01 16:15:00,
2013-09-01 09:20:00,70.1,43.3,29.73,WNW,292,0.0,0.0,38,0.00,CLR,,0.00,WeatherDisplay:10.37,2013-09-01 16:20:00,
2013-09-01 09:25:00,70.3,43.5,29.73,WNW,292,0.0,0.0,38,0.00,CLR,,0.00,WeatherDisplay:10.37,2013-09-01 16:25:00,
2013-09-01 09:30:00,70.3,44.2,29.73,WNW,292,0.0,0.0,39,0.00,CLR,,0.00,WeatherDisplay:10.37,2013-09-01 16:30:00,
2013-09-01 09:35:00,70.8,43.9,29.74,WNW,292,0.0,0.0,38,0.00,CLR,,0.00,WeatherDisplay:10.37,2013-09-01 16:35:00,
2013-09-01 09:40:00,70.9,46.0,29.74,WNW,292,0.0,0.0,41,0.00,CLR,,0.00,WeatherDisplay:10.37,2013-09-01 16:40:00,
2013-09-01 09:50:00,71.3,45.1,29.73,WNW,292,0.0,0.0,39,0.00,CLR,,0.00,WeatherDisplay:10.37,2013-09-01 16:50:00,
2013-09-01 09:55:00,71.5,47.2,29.73,WNW,292,0.0,0.0,42,0.00,CLR,,0.00,WeatherDisplay:10.37,2013-09-01 16:55:00,
2013-09-01 10:00:00,71.8,44.1,29.72,WNW,292,0.0,0.0,37,0.00,CLR,,0.00,WeatherDisplay:10.37,2013-09-01 17:00:00,
2013-09-01 10:10:00,72.5,44.7,29.72,WNW,292,0.0,0.0,37,0.00,CLR,,0.00,WeatherDisplay:10.37,2013-09-01 17:10:00,
2013-09-01 10:25:00,73.5,43.4,29.72,WNW,292,0.0,0.0,34,0.00,CLR,,0.00,WeatherDisplay:10.37,2013-09-01 17:25:00,
2013-09-01 10:30:00,73.5,44.9,29.72,WNW,292,0.0,0.0,36,0.00,CLR,,0.00,WeatherDisplay:10.37,2013-09-01 17:30:00,
2013-09-01 10:35:00,74.0,46.8,29.70,WNW,292,0.0,0.0,38,0.00,CLR,,0.00,WeatherDisplay:10.37,2013-09-01 17:35:00,
2013-09-01 10:40:00,74.2,44.8,29.70,WNW,292,0.0,0.0,35,0.00,CLR,,0.00,WeatherDisplay:10.37,2013-09-01 17:40:00,
2013-09-01 10:50:00,74.9,44.6,29.70,WNW,292,0.0,0.0,34,0.00,CLR,,0.00,WeatherDisplay:10.37,2013-09-01 17:50:00,
2013-09-01 10:55:00,76.0,42.3,29.70,WNW,292,0.0,0.0,30,0.00,CLR,,0.00,WeatherDisplay:10.37,2013-09-01 17:55:00,
2013-09-01 11:00:00,77.0,42.3,29.70,WNW,292,0.0,0.0,29,0.00,CLR,,0.00,WeatherDisplay:10.37,2013-09-01 18:00:00,
2013-09-01 11:05:00,77.6,41.9,29.68,WNW,292,0.0,0.0,28,0.00,CLR,,0.00,WeatherDisplay:10.37,2013-09-01 18:05:00,
2013-09-01 11:10:00,77.9,39.2,29.68,WNW,292,0.0,0.0,25,0.00,CLR,,0.00,WeatherDisplay:10.37,2013-09-01 18:10:00,
2013-09-01 11:15:00,78.1,38.4,29.68,WNW,292,0.0,0.0,24,0.00,CLR,,0.00,WeatherDisplay:10.37,2013-09-01 18:15:00,
2013-09-01 11:20:00,78.5,40.7,29.68,WNW,292,0.0,0.0,26,0.00,CLR,,0.00,WeatherDisplay:10.37,2013-09-01 18:20:00,
2013-09-01 11:25:00,79.2,38.2,29.68,WNW,292,0.0,0.0,23,0.00,CLR,,0.00,WeatherDisplay:10.37,2013-09-01 18:25:00,
2013-09-01 11:30:00,79.9,37.6,29.67,WNW,292,0.0,0.0,22,0.00,CLR,,0.00,WeatherDisplay:10.37,2013-09-01 18:30:00,
2013-09-01 11:35:00,80.5,39.3,29.67,WNW,292,0.0,0.0,23,0.00,CLR,,0.00,WeatherDisplay:10.37,2013-09-01 18:35:00,
2013-09-01 11:40:00,80.7,37.1,29.67,WNW,292,0.0,0.0,21,0.00,CLR,,0.00,WeatherDisplay:10.37,2013-09-01 18:40:00,
2013-09-01 11:45:00,81.4,37.7,29.66,WNW,292,0.0,0.0,21,0.00,CLR,,0.00,WeatherDisplay:10.37,2013-09-01 18:45:00,
2013-09-01 11:50:00,82.2,37.1,29.66,WNW,292,0.0,0.0,20,0.00,CLR,,0.00,WeatherDisplay:10.37,2013-09-01 18:50:00,
2013-09-01 11:55:00,82.0,37.0,29.66,WNW,292,0.0,0.0,20,0.00,CLR,,0.00,WeatherDisplay:10.37,2013-09-01 18:55:00,
2013-09-01 12:00:00,81.2,36.3,29.65,WNW,292,0.0,0.0,20,0.00,CLR,,0.00,WeatherDisplay:10.37,2013-09-01 19:00:00,
2013-09-01 12:05:00,81.6,35.3,29.65,WNW,292,0.0,0.0,19,0.00,CLR,,0.00,WeatherDisplay:10.37,2013-09-01 19:05:00,
2013-09-01 12:10:00,83.0,37.8,29.65,WNW,292,0.0,0.0,20,0.00,CLR,,0.00,WeatherDisplay:10.37,2013-09-01 19:10:00,
2013-09-01 12:15:00,83.6,35.6,29.64,WNW,292,0.0,0.0,18,0.00,CLR,,0.00,WeatherDisplay:10.37,2013-09-01 19:15:00,
2013-09-01 12:20:00,83.2,35.3,29.64,WNW,292,0.0,0.0,18,0.00,CLR,,0.00,WeatherDisplay:10.37,2013-09-01 19:20:00,